EHI
0 0 0 0 0 0 0 0 0 0 0 0 0 0 0 0 0 0 0 0 0 0 0 0 0 0 0 0 0 0 0 0 0 0 0 0 0 0 0 0 0 0 0 0
0 0 0 0 0 0 0 0 0 0 0 0 0 0 0 0 0 0 0 0 0 0 0 0 0 0 0 0 0 0 0 0 0 0 0 0 0 0 0 0 0 0 0 0
0 0 0 0 0 0 0 0 0 0 0 0 0 0 0 0 0 0 0 0 0 0 0 0 0 0 0 0 0 0 0 0 0 0 0 0 0 0 0 0 0 0 0 0
0 0 0 0 0 0 0 0 0 0 0 0 0 0 0 0 0 0 0 0 0 0 0 0 0 0 0 0 0 0 0 0 0 0 0 0 0 0 0 0 0 0 0 0
0 0 0 0 0 0 0 0 0 0 0 0 0 0 0 0 0 0 0 0 0 0 0 0 0 0 0 0 0 0 0 0 0 0 0 0 0 0 0 0 0 0 0 0
0 0 0 0 0 0 0 0 0 0 0 0 0 0 0 0 0 0 0 0 0 0 0 0 0 0 0 0 0 0 0 0 0 0 0 0 0 0 0 0 0 0 0 0
0 0 0 0 0 0 0 0 0 0 0 0 0 0 0 0 0 0 0 0 0 0 0 0 0 0 0 0 0 0 0 0 0 0 0 0 0 0 0 0 0 0 0 0
0 0 0 0 0 0 0 0 0 0 0 0 0 0 0 0 0 0 0 0 0 0 0 0 0 0 0 0 0 0 0 0 0 0 0 0 0 0 0 0 0 0 0 0
0 0 0 0 0 0 0 0 0 0 0 0 0 0 0 0 0 0 0 0 0 0 0 0 0 0 0 0 0 0 0 0 0 0 0 0 0 0 0 0 0 0 0 0
0 0 0 0 0 0 0 0 0 0 0 0 0 0 0 0 0 0 0 0 0 0 0 0 0 0 0 0 0 0 0 0 0 0 0 0 0 0 0 0 0 0 0 0
0 0 0 0 0 0 0 0 0 0 0 0 0 0 0 0 0 0 0 0 0 0 0 0 0 0 0 0 0 0 0 0 0 0 0 0 0 0 0 0 0 0 0 0
0 0 0 0 0 0 0 0 0 0 0 0 0 0 0 0 0 0 0 0 0 0 0 0 0 0 0 0 0 0 0 0 0 0 0 0 0 0 0 0 0 0 0 0
0 0 0 0 0 0 0 0 0 0 0 0 0 0 0 0 0 0 0 0 0 0 0 0 0 0 0 0 0 0 0 0 0 0 0 0 0 0 0 0 0 0 0 0
0 0 0 0 0 0 0 0 0 0 0 0 0 0 0 0 0 0 0 0 0 0 0 0 0 0 0 0 0 0 0 0 0 0 0 0 0 0 0 0 0 0 0 0
0 0 0 0 0 0 0 0 0 0 0 0 0 0 0 0 0 0 0 0 0 0 0 0 0 0 0 0 0 0 0 0 0 0 0 0 0 0 0 0 0 0 0 0
0 0 0 0 0 0 0 0 0 0 0 0 0 0 0 0 0 0 0 0 0 0 0 0 0 0 0 0 0 0 0 0 0 0 0 0 0 0 0 0 0 0 0 0
0 0 0 0 0 0 0 0 0 0 0 0 0 0 0 0 0 0 0 0 0 0 0 0 0 0 0 0 0 0 0 0 0 0 0 0 0 0 0 0 0 0 0 0
0 0 0 0 0 0 0 0 0 0 0 0 0 0 0 0 0 0 0 0 0 0 0 0 0 0 0 0 0 0 0 0 0 0 0 0 0 0 0 0 0 0 0 0
0 0 0 0 0 0 0 0 0 0 0 0 0 0 0 0 0 0 0 0 0 0 0 0 0 0 0 0 0 0 0 0 0 0 0 0 0 0 0 0 0 0 0 0
0 0 0 0 0 0 0 0 0 0 0 0 0 0 0 0 0 0 0 0 0 0 0 0 0 0 0 0 0 0 0 0 0 0 0 0 0 0 0 0 0 0 0 0
0 0 0 0 0 0 0 0 0 0 0 0 0 0 0 0 0 0 0 0 0 0 0 0 0 0 0 0 0 0 0 0 0 0 0 0 0 0 0 0 0 0 0 0
0 0 0 0 0 0 0 0 0 0 0 0 0 0 0 0 0 0 0 0 0 0 0 0 0 0 0 0 0 0 0 0 0 0 0 0 0 0 0 0 0 0 0 0
0 0 0 0 0 0 0 0 0 0 0 0 0 0 0 0 0 0 0 0 0 0 0 0 0 0 0 0 0 0 0 0 0 0 0 0 0 0 0 0 0 0 0 0
0 0 0 0 0 0 0 0 0 0 0 0 0 0 0 0 0 0 0 0 0 0 0 0 0 0 0 0 0 0 0 0 0 0 0 0 0 0 0 0 0 0 0 0
0 0 0 0 0 0 0 0 0 0 0 0 0 0 0 0 0 0 0 0 0 0 0 0 0 0 0 0 0 0 0 0 0 0 0 0 0 0 0 0 0 0 0 0
0 0 0 0 0 0 0 0 0 0 0 0 0 0 0 0 0 0 0 0 0 0 0 0 0 0 0 0 0 0 0 0 0 0 0 0 0 0 0 0 0 0 0 0
0 0 0 0 0 0 0 0 0 0 0 0 0 0 0 0 0 0 0 0 0 0 0 0 0 0 0 0 0 0 0 0 0 0 0 0 0 0 0 0 0 0 0 0
Wind_Speed
2 3 2 3 3 3 4 6 7 6 6 8 12 15 18 19 20 20 19 17 14 11 9 8 7 5 4 3 2 1 2 3 4 5 5 6 6 6 6 7 8 8 8 8
3 3 4 4 5 5 5 4 4 3 7 3 7 9 14 18 20 20 19 17 14 12 11 9 7 5 4 3 2 2 3 4 4 5 6 7 7 6 6 8 8 8 8 6
3 5 5 7 5 4 5 3 4 7 6 6 7 12 14 15 16 16 17 16 14 12 10 7 6 5 5 2 2 3 4 5 5 5 7 8 8 7 7 7 6 6 5 5
2 1 7 9 3 2 3 3 2 3 2 7 8 7 7 6 9 12 14 14 12 10 7 5 4 3 2 2 3 3 4 5 6 6 6 6 6 7 7 6 5 5 6 6
3 3 7 8 4 3 2 5 1 2 8 11 14 12 8 6 8 7 8 9 8 7 6 5 4 3 2 2 2 3 4 5 6 6 5 6 8 8 6 5 6 5 5 6
4 3 6 6 6 6 1 6 2 5 12 14 11 8 6 8 13 12 10 8 7 5 4 4 3 2 1 1 3 4 5 5 5 5 7 7 7 5 5 4 5 6 6 7
3 4 8 5 9 6 1 5 7 2 10 10 5 6 12 13 13 12 10 7 6 6 5 4 3 2 1 2 3 3 3 5 7 7 7 6 5 4 5 5 6 7 8 8
3 3 8 4 6 3 3 6 4 1 4 7 12 15 14 14 13 12 9 6 6 5 4 2 2 1 2 3 3 2 5 6 6 6 5 4 5 5 5 6 6 7 8 8
6 8 6 3 5 6 5 4 1 3 7 14 15 14 13 11 10 8 7 6 4 4 3 1 1 1 1 3 2 5 6 6 6 6 5 4 4 4 4 4 5 7 7 8
5 9 8 8 7 5 4 4 4 7 11 13 14 13 11 9 8 6 5 4 4 4 2 2 3 2 1 1 5 6 6 5 5 5 5 5 4 3 4 5 6 8 8 8
7 8 9 7 5 2 4 8 11 11 10 11 14 12 9 8 6 5 4 3 3 4 3 1 2 2 2 5 7 7 6 5 4 4 5 5 5 4 4 3 4 6 7 6
8 6 4 5 2 5 11 13 15 14 10 8 9 10 9 7 4 4 5 4 4 4 3 3 3 4 5 6 7 8 6 4 4 4 4 5 5 6 7 5 5 7 8 8
6 3 3 1 5 9 12 14 13 11 10 9 8 9 9 5 4 5 5 5 5 4 4 4 5 5 5 6 7 8 7 5 4 5 5 5 5 5 6 6 6 6 9 11
3 2 4 6 8 10 12 11 10 10 9 9 8 8 8 6 5 5 4 4 5 5 5 5 6 5 5 6 8 8 7 6 5 5 5 5 5 5 5 6 6 6 8 11
5 6 8 10 10 10 10 11 12 11 9 9 8 8 8 7 6 4 4 5 6 6 5 5 6 5 5 7 9 8 6 4 4 4 4 4 5 5 5 6 6 6 7 9
11 10 10 11 11 10 10 11 11 8 9 8 8 8 7 7 5 4 4 5 6 5 3 4 5 5 7 8 8 6 5 7 6 4 4 5 5 6 6 6 6 7 7 8
11 9 9 9 8 8 7 7 7 7 8 9 8 7 7 7 6 6 5 5 5 3 2 3 5 7 8 8 7 5 4 4 7 5 4 4 5 5 6 6 7 7 7 9
8 7 6 7 7 6 7 7 8 9 7 7 7 7 7 7 6 5 4 4 4 4 4 4 7 8 8 7 6 5 4 3 3 3 3 4 5 5 6 6 7 8 7 8
8 6 4 4 5 6 6 7 7 7 6 6 7 6 5 5 6 5 3 4 4 5 4 5 10 9 7 7 7 4 4 4 4 4 4 6 6 6 6 7 7 8 8 8
7 5 4 4 4 5 7 7 7 7 5 6 6 6 5 5 6 6 4 3 2 1 3 6 7 7 6 6 7 4 4 3 4 4 4 5 6 6 7 7 7 7 8 8
10 9 8 7 6 6 8 8 8 6 5 5 6 6 5 5 5 5 4 2 3 3 6 8 6 5 5 6 6 4 3 3 3 3 3 4 5 6 6 7 7 7 7 7
9 9 10 8 7 7 6 6 7 7 6 5 6 6 6 6 6 4 3 2 2 5 5 4 4 6 8 8 5 4 4 4 3 3 3 4 4 5 5 6 6 7 7 7
6 7 8 9 8 7 6 6 6 6 6 5 5 5 5 5 4 4 3 1 3 6 5 4 8 11 11 6 5 5 6 5 5 4 4 4 4 4 4 6 6 6 7 7
6 6 7 7 8 8 7 5 5 5 5 4 3 4 5 5 3 2 2 4 6 8 5 8 12 12 10 5 5 5 5 5 4 4 4 4 4 4 5 5 5 6 6 8
6 6 7 9 8 6 6 6 6 5 5 3 4 4 3 4 4 3 4 5 9 9 7 9 12 11 7 5 5 5 4 4 4 3 3 3 4 4 4 5 5 6 6 6
5 5 5 5 5 6 6 5 4 3 4 3 3 3 4 4 6 6 5 6 8 9 7 5 6 7 5 5 5 5 5 5 5 4 4 3 4 4 4 5 7 6 6 6
6 5 5 4 4 4 5 5 5 4 3 4 3 3 4 5 5 6 7 6 6 6 6 5 5 5 5 5 5 5 4 4 4 4 3 3 3 4 4 5 5 5 5 6
Wind_Direction
256 276 304 282 282 258 210 195 200 241 228 214 186 171 164 159 157 159 159 157 155 148 139 142 151 160 164 172 185 219 255 266 264 265 265 265 268 269 270 267 267 269 275 281
324 320 342 304 277 265 242 216 213 226 247 209 153 159 164 164 164 163 160 159 153 148 151 159 163 166 170 188 221 248 255 259 268 279 284 285 285 285 285 284 285 286 282 290
279 308 344 285 247 238 243 244 203 222 241 145 162 178 173 166 165 160 158 156 152 155 159 162 164 164 171 201 257 268 273 283 288 289 290 291 297 303 302 301 312 322 336 352
229 296 238 247 282 271 262 283 308 289 227 153 131 109 92 120 144 156 156 151 149 150 148 147 149 150 175 236 260 281 294 298 300 303 303 316 337 351 359 8 16 16 17 12
140 221 283 300 344 9 311 290 269 138 122 116 111 84 59 76 111 119 122 130 135 134 133 140 150 169 201 272 297 306 308 312 320 333 353 22 36 36 34 34 26 14 4 4
133 173 244 269 335 328 318 296 298 155 148 146 134 147 150 121 112 108 106 107 112 110 114 136 167 182 197 316 325 324 323 331 2 42 63 64 55 42 27 25 14 1 359 356
151 214 262 296 311 323 196 287 321 198 161 158 146 137 131 124 115 116 116 124 133 135 137 155 172 170 47 339 326 324 358 58 69 70 72 67 56 42 28 19 7 358 352 346
134 211 261 322 2 30 282 285 304 126 127 118 116 119 125 124 126 133 138 139 138 131 138 167 174 116 13 331 325 44 82 82 72 61 61 61 54 39 27 17 5 355 352 349
198 227 249 274 263 261 243 240 186 132 132 133 129 128 126 127 130 133 136 131 126 136 149 190 91 99 346 330 50 94 90 82 69 56 43 35 34 20 3 356 354 350 355 353
277 272 275 278 276 278 218 189 150 139 137 135 127 126 122 120 116 116 120 128 130 129 107 32 36 87 217 75 101 103 95 79 57 40 24 14 6 355 346 346 351 355 355 349
262 280 300 297 290 255 130 118 115 113 113 121 123 117 112 107 110 115 114 109 112 115 105 51 41 51 87 109 109 100 90 75 49 33 20 7 0 349 351 351 8 4 356 343
235 239 252 293 337 113 115 113 117 120 115 116 117 112 106 104 108 111 106 105 102 93 77 57 68 80 89 103 110 105 91 67 44 30 21 16 8 3 3 8 2 7 358 347
241 261 233 162 106 115 121 127 132 130 127 117 102 106 109 105 99 97 101 106 98 89 85 81 89 88 92 105 104 97 90 72 47 34 26 17 13 7 356 348 351 354 343 339
243 179 125 118 121 125 125 120 109 98 96 100 101 102 100 94 94 97 97 95 99 97 89 96 99 95 108 112 101 91 82 68 56 39 29 18 8 357 349 350 353 352 347 344
77 101 109 112 110 111 110 110 105 100 97 95 99 99 97 98 99 96 91 95 92 86 88 106 109 109 116 108 101 93 82 65 53 43 28 13 3 359 357 358 359 358 359 356
108 101 102 106 108 109 108 109 108 105 105 105 99 93 96 103 105 93 84 89 94 92 95 116 117 123 121 112 104 93 81 77 65 45 27 16 10 8 6 6 6 7 10 6
120 118 116 110 107 103 102 106 111 111 109 109 106 102 100 98 90 84 73 66 83 81 69 108 120 123 122 118 111 103 86 64 55 44 24 8 2 7 10 12 11 8 7 3
94 104 119 122 119 112 108 106 107 106 107 110 107 103 103 106 111 108 91 87 83 59 45 94 121 120 121 119 112 105 91 69 48 33 16 11 6 6 12 15 13 11 5 3
111 121 121 107 121 132 121 111 105 104 109 112 111 112 115 119 123 120 107 99 78 59 44 93 118 117 123 126 119 105 94 74 55 44 38 29 25 19 18 17 14 11 7 6
147 156 132 123 140 136 122 115 111 109 116 118 114 111 111 122 128 124 108 86 46 53 108 118 113 115 124 129 120 109 100 84 69 56 45 37 32 27 23 19 15 11 9 8
155 153 144 146 141 127 124 125 121 119 120 118 115 117 120 123 124 119 109 83 18 79 112 121 113 115 115 120 116 109 104 90 73 56 42 40 40 36 30 25 19 14 11 10
141 140 140 141 130 118 116 121 122 120 113 107 110 116 117 120 116 100 85 117 116 115 112 111 111 115 114 108 100 98 94 86 74 65 61 54 46 37 31 27 21 14 11 11
124 132 138 142 136 123 113 116 124 125 123 121 120 125 125 126 126 127 129 126 109 119 115 114 125 120 110 99 99 96 92 87 81 74 64 52 41 31 26 26 21 16 11 10
121 125 129 128 123 120 119 120 122 127 126 115 105 117 122 115 90 59 114 123 120 115 111 124 124 117 109 103 103 99 94 89 85 78 68 55 43 34 28 24 21 16 13 12
126 127 131 137 141 141 135 126 116 114 109 93 75 80 105 129 131 123 108 111 120 115 111 122 122 115 108 107 104 100 96 94 94 86 67 54 43 38 32 26 22 18 15 12
130 136 142 149 148 142 137 132 130 133 122 108 79 74 87 96 107 107 104 108 113 116 117 118 117 110 107 107 104 101 97 94 85 76 69 59 49 44 36 30 28 22 17 15
101 100 100 92 91 117 130 135 138 147 147 136 119 108 113 112 111 113 113 111 111 111 112 113 114 114 113 111 105 100 96 91 87 81 73 61 51 45 39 37 29 25 23 24